| time (UTC) | temp F | wind direction | speed knots | gust knots | rain 1hr in | rain 24hr in | rain mn in | humidity % | barometer mb |
| 20260510013711 | 53 | 130 | 1.7 | 2.6 | 0.00 | 0.21 | 0.21 | 92 | 1009.1 |
| 20260510012707 | 0 | 0.0 | 0.0 | 0.00 | 0.00 | 0.00 | 1008.8 | ||
| 20260510011703 | 53 | 219 | 0.0 | 0.0 | 0.00 | 0.21 | 0.21 | 92 | 1008.8 |
| 20260510010701 | 0 | 0.0 | 0.0 | 0.00 | 0.00 | 0.00 | 1008.4 | ||
| 20260510005700 | 54 | 232 | 0.0 | 0.0 | 0.00 | 0.21 | 0.21 | 91 | 1008.2 |
| 20260510004655 | 54 | 211 | 0.0 | 0.0 | 0.00 | 0.21 | 0.21 | 90 | 1008.1 |
| 20260510003655 | 54 | 193 | 0.0 | 0.0 | 0.00 | 0.21 | 0.21 | 90 | 1007.9 |
| 20260510002651 | 54 | 202 | 0.0 | 0.0 | 0.00 | 0.21 | 0.21 | 90 | 1007.6 |
| 20260510001651 | 54 | 191 | 0.0 | 0.0 | 0.00 | 0.21 | 0.21 | 90 | 1007.5 |
| 20260510000650 | 54 | 189 | 0.0 | 0.0 | 0.00 | 0.21 | 0.21 | 90 | 1007.4 |
| 20260509235650 | 55 | 203 | 0.0 | 0.0 | 0.00 | 0.21 | 0.21 | 90 | 1007.2 |
| 20260509234648 | 55 | 190 | 0.9 | 0.9 | 0.00 | 0.21 | 0.21 | 89 | 1007.1 |
| 20260509233644 | 55 | 190 | 2.6 | 4.3 | 0.00 | 0.21 | 0.21 | 88 | 1006.8 |
| 20260509232642 | 55 | 184 | 4.3 | 7.8 | 0.00 | 0.21 | 0.21 | 89 | 1007.0 |
| 20260509231642 | 55 | 193 | 2.6 | 2.6 | 0.00 | 0.21 | 0.21 | 88 | 1006.6 |
| 20260509230642 | 55 | 221 | 1.7 | 1.7 | 0.00 | 0.21 | 0.21 | 86 | 1006.5 |
| 20260509225641 | 55 | 187 | 2.6 | 2.6 | 0.00 | 0.21 | 0.21 | 85 | 1006.2 |
| 20260509224638 | 55 | 176 | 2.6 | 4.3 | 0.00 | 0.21 | 0.21 | 85 | 1006.0 |
| 20260509223632 | 55 | 202 | 2.6 | 4.3 | 0.00 | 0.21 | 0.21 | 85 | 1006.0 |
| 20260509222632 | 55 | 172 | 2.6 | 2.6 | 0.00 | 0.21 | 0.21 | 85 | 1005.7 |
| 20260509221630 | 55 | 186 | 3.5 | 5.2 | 0.00 | 0.21 | 0.21 | 85 | 1005.7 |
| 20260509220627 | 53 | 185 | 3.5 | 4.3 | 0.00 | 0.21 | 0.21 | 87 | 1006.1 |
| 20260509215626 | 52 | 197 | 2.6 | 2.6 | 0.00 | 0.21 | 0.21 | 89 | 1006.1 |
| 20260509214626 | 51 | 185 | 3.5 | 5.2 | 0.00 | 0.21 | 0.21 | 90 | 1006.2 |
| 20260509213625 | 50 | 202 | 2.6 | 4.3 | 0.00 | 0.21 | 0.21 | 89 | 1006.2 |
| 20260509212625 | 50 | 216 | 2.6 | 6.1 | 0.00 | 0.21 | 0.21 | 91 | 1006.4 |
| 20260509211623 | 49 | 200 | 4.3 | 5.2 | 0.00 | 0.21 | 0.21 | 92 | 1006.5 |
| 20260509210622 | 49 | 200 | 7.0 | 12.2 | 0.05 | 0.21 | 0.21 | 92 | 1007.3 |
| 20260509205619 | 50 | 191 | 3.5 | 5.2 | 0.35 | 0.21 | 0.21 | 94 | 1006.5 |
| 20260509204617 | 55 | 192 | 8.7 | 13.0 | 0.31 | 0.15 | 0.15 | 92 | 1007.3 |
| 20260509203615 | 56 | 211 | 6.1 | 8.7 | 0.00 | 0.10 | 0.10 | 86 | 1005.9 |
| 20260509202614 | 57 | 193 | 6.1 | 7.8 | 0.00 | 0.10 | 0.10 | 85 | 1005.6 |
| 20260509201610 | 57 | 197 | 9.6 | 13.0 | 0.00 | 0.10 | 0.10 | 84 | 1005.7 |
| 20260509200608 | 56 | 171 | 8.7 | 13.0 | 0.00 | 0.10 | 0.10 | 85 | 1005.8 |
| 20260509195606 | 57 | 187 | 12.2 | 20.0 | 0.00 | 0.10 | 0.10 | 84 | 1005.8 |
| 20260509194606 | 57 | 174 | 5.2 | 11.3 | 0.00 | 0.10 | 0.10 | 83 | 1005.5 |
| 20260509193606 | 57 | 185 | 7.0 | 13.0 | 0.00 | 0.10 | 0.10 | 82 | 1005.6 |
| 20260509192605 | 58 | 196 | 7.8 | 13.0 | 0.00 | 0.10 | 0.10 | 81 | 1006.0 |
| 20260509191600 | 58 | 198 | 7.8 | 12.2 | 0.00 | 0.10 | 0.10 | 82 | 1005.9 |
| 20260509190559 | 57 | 135 | 5.2 | 12.2 | 0.00 | 0.10 | 0.10 | 84 | 1006.0 |
| 20260509185554 | 56 | 203 | 3.5 | 4.3 | 0.00 | 0.10 | 0.10 | 87 | 1006.3 |
| 20260509184549 | 55 | 184 | 4.3 | 6.1 | 0.00 | 0.10 | 0.10 | 89 | 1006.6 |
| 20260509183546 | 55 | 200 | 6.1 | 7.8 | 0.00 | 0.10 | 0.10 | 88 | 1007.0 |
| 20260509182544 | 55 | 168 | 5.2 | 7.8 | 0.00 | 0.10 | 0.10 | 89 | 1006.7 |
| 20260509181540 | 55 | 207 | 5.2 | 8.7 | 0.00 | 0.10 | 0.10 | 89 | 1006.7 |
| 20260509180538 | 56 | 180 | 10.4 | 18.2 | 0.00 | 0.10 | 0.10 | 87 | 1006.3 |
| 20260509175536 | 56 | 211 | 5.2 | 8.7 | 0.00 | 0.10 | 0.10 | 87 | 1006.5 |
| 20260509174536 | 57 | 210 | 7.8 | 11.3 | 0.00 | 0.10 | 0.10 | 84 | 1006.7 |
| 20260509173532 | 57 | 214 | 7.8 | 20.0 | 0.00 | 0.10 | 0.10 | 83 | 1006.4 |
| 20260509172531 | 58 | 209 | 7.8 | 11.3 | 0.00 | 0.10 | 0.10 | 83 | 1006.8 |
| 20260509171529 | 57 | 268 | 4.3 | 6.1 | 0.00 | 0.10 | 0.10 | 82 | 1007.0 |
| 20260509170527 | 55 | 202 | 1.7 | 4.3 | 0.00 | 0.10 | 0.10 | 86 | 1007.3 |
| 20260509165527 | 55 | 201 | 11.3 | 13.9 | 0.00 | 0.10 | 0.10 | 86 | 1007.6 |
| 20260509164525 | 55 | 207 | 9.6 | 17.4 | 0.00 | 0.10 | 0.10 | 85 | 1007.7 |
| 20260509163525 | 55 | 172 | 8.7 | 12.2 | 0.00 | 0.10 | 0.10 | 83 | 1007.6 |
| 20260509162524 | 55 | 208 | 8.7 | 13.9 | 0.00 | 0.10 | 0.10 | 86 | 1008.2 |
| 20260509161521 | 56 | 195 | 5.2 | 7.0 | 0.00 | 0.10 | 0.10 | 85 | 1008.1 |
| 20260509160517 | 56 | 212 | 3.5 | 5.2 | 0.00 | 0.10 | 0.10 | 84 | 1008.7 |
| 20260509155515 | 56 | 167 | 5.2 | 8.7 | 0.00 | 0.10 | 0.10 | 83 | 1008.3 |
| 20260509154514 | 55 | 199 | 11.3 | 17.4 | 0.00 | 0.10 | 0.10 | 84 | 1007.9 |
| 20260509153514 | 55 | 176 | 11.3 | 15.6 | 0.00 | 0.10 | 0.10 | 85 | 1008.3 |
| 20260509152512 | 54 | 192 | 11.3 | 13.9 | 0.00 | 0.10 | 0.10 | 89 | 1008.7 |
| 20260509151511 | 54 | 186 | 5.2 | 8.7 | 0.00 | 0.10 | 0.10 | 90 | 1008.6 |
| 20260509150506 | 54 | 200 | 4.3 | 7.0 | 0.00 | 0.10 | 0.10 | 89 | 1008.6 |
| 20260509145506 | 54 | 200 | 5.2 | 8.7 | 0.00 | 0.10 | 0.10 | 91 | 1008.7 |
| 20260509144504 | 54 | 183 | 17.4 | 20.0 | 0.00 | 0.10 | 0.10 | 88 | 1008.7 |
| 20260509143504 | 54 | 196 | 12.2 | 13.9 | 0.00 | 0.10 | 0.10 | 88 | 1008.6 |
| 20260509142503 | 54 | 179 | 6.1 | 11.3 | 0.00 | 0.10 | 0.10 | 90 | 1008.6 |
| 20260509141501 | 53 | 210 | 4.3 | 6.1 | 0.00 | 0.10 | 0.10 | 91 | 1008.7 |
| 20260509140500 | 53 | 188 | 7.0 | 8.7 | 0.00 | 0.10 | 0.10 | 92 | 1008.4 |
| 20260509135456 | 52 | 178 | 2.6 | 4.3 | 0.00 | 0.10 | 0.10 | 96 | 1008.6 |
| 20260509134451 | 51 | 193 | 2.6 | 7.0 | 0.00 | 0.10 | 0.10 | 99 | 1008.6 |
| 20260509133450 | 51 | 184 | 6.1 | 7.8 | 0.00 | 0.10 | 0.10 | 99 | 1008.8 |
| 20260509132446 | 51 | 175 | 7.0 | 9.6 | 0.00 | 0.10 | 0.10 | 99 | 1008.7 |
| 20260509131446 | 51 | 187 | 7.8 | 12.2 | 0.00 | 0.10 | 0.10 | 99 | 1008.9 |
| 20260509130444 | 50 | 189 | 10.4 | 12.2 | 0.00 | 0.10 | 0.10 | 99 | 1008.8 |
| 20260509125444 | 50 | 143 | 5.2 | 9.6 | 0.00 | 0.10 | 0.10 | 99 | 1008.8 |
| 20260509124443 | 50 | 187 | 5.2 | 7.0 | 0.00 | 0.10 | 0.10 | 99 | 1009.0 |
| 20260509123443 | 50 | 195 | 5.2 | 6.1 | 0.00 | 0.10 | 0.10 | 99 | 1009.1 |
| 20260509122442 | 50 | 205 | 3.5 | 5.2 | 0.00 | 0.10 | 0.10 | 99 | 1008.9 |
| 20260509121441 | 50 | 163 | 9.6 | 11.3 | 0.00 | 0.10 | 0.10 | 99 | 1009.2 |
| 20260509120437 | 49 | 190 | 0.9 | 1.7 | 0.00 | 0.10 | 0.10 | 99 | 1009.3 |
| 20260509115432 | 49 | 196 | 2.6 | 4.3 | 0.00 | 0.10 | 0.10 | 99 | 1009.2 |
| 20260509114428 | 49 | 189 | 6.1 | 8.7 | 0.00 | 0.10 | 0.10 | 99 | 1009.0 |
| 20260509113424 | 49 | 175 | 4.3 | 6.1 | 0.00 | 0.10 | 0.10 | 99 | 1009.1 |
| 20260509112424 | 49 | 156 | 0.0 | 0.9 | 0.00 | 0.10 | 0.10 | 99 | 1008.9 |
| 20260509111424 | 0 | 0.0 | 0.0 | 0.00 | 0.00 | 0.00 | 1009.1 | ||
| 20260509110423 | 0 | 0.0 | 0.0 | 0.00 | 0.00 | 0.00 | 1009.3 | ||
| 20260509105420 | 0 | 0.0 | 0.0 | 0.00 | 0.00 | 0.00 | 1009.1 | ||
| 20260509104419 | 0 | 0.0 | 0.0 | 0.00 | 0.00 | 0.00 | 1009.1 | ||
| 20260509103419 | 0 | 0.0 | 0.0 | 0.00 | 0.00 | 0.00 | 1009.1 | ||
| 20260509102415 | 48 | 196 | 4.3 | 6.1 | 0.00 | 0.10 | 0.10 | 99 | 1009.3 |
| 20260509101413 | 48 | 190 | 1.7 | 2.6 | 0.00 | 0.10 | 0.10 | 99 | 1009.3 |
| 20260509100413 | 0 | 0.0 | 0.0 | 0.00 | 0.00 | 0.00 | 1009.1 | ||
| 20260509095413 | 48 | 195 | 0.0 | 0.9 | 0.00 | 0.10 | 0.10 | 98 | 1009.3 |
| 20260509094412 | 48 | 202 | 0.9 | 2.6 | 0.00 | 0.10 | 0.10 | 98 | 1009.4 |
| 20260509093407 | 48 | 202 | 1.7 | 7.0 | 0.00 | 0.10 | 0.10 | 98 | 1009.5 |
| 20260509092403 | 48 | 178 | 0.0 | 0.9 | 0.00 | 0.10 | 0.10 | 98 | 1009.4 |
| 20260509091403 | 48 | 228 | 0.0 | 0.0 | 0.00 | 0.10 | 0.10 | 97 | 1009.6 |
| 20260509090358 | 48 | 208 | 0.0 | 0.0 | 0.00 | 0.10 | 0.10 | 97 | 1009.6 |
| 20260509085358 | 48 | 197 | 0.0 | 0.0 | 0.00 | 0.10 | 0.10 | 97 | 1009.6 |
| 20260509084357 | 48 | 203 | 0.0 | 0.0 | 0.00 | 0.10 | 0.10 | 97 | 1009.8 |
| 20260509083357 | 48 | 227 | 0.0 | 0.0 | 0.00 | 0.10 | 0.10 | 97 | 1010.1 |
| 20260509082356 | 48 | 180 | 0.0 | 0.9 | 0.00 | 0.10 | 0.10 | 97 | 1010.1 |
| 20260509081356 | 48 | 192 | 1.7 | 5.2 | 0.00 | 0.10 | 0.10 | 96 | 1009.9 |
| 20260509080352 | 48 | 191 | 0.0 | 0.9 | 0.00 | 0.10 | 0.10 | 96 | 1009.8 |
| 20260509075352 | 48 | 182 | 0.0 | 0.0 | 0.00 | 0.10 | 0.10 | 96 | 1009.9 |
| 20260509074347 | 48 | 213 | 0.0 | 0.0 | 0.00 | 0.10 | 0.10 | 95 | 1010.2 |
| 20260509073346 | 48 | 112 | 0.9 | 2.6 | 0.00 | 0.10 | 0.10 | 95 | 1010.2 |
| 20260509072344 | 49 | 214 | 0.0 | 0.0 | 0.00 | 0.10 | 0.10 | 95 | 1010.4 |
| 20260509071344 | 48 | 152 | 0.0 | 0.0 | 0.00 | 0.10 | 0.10 | 94 | 1010.1 |
| 20260509070344 | 47 | 221 | 0.0 | 0.0 | 0.05 | 0.10 | 0.10 | 93 | 1010.2 |
| 20260509065342 | 47 | 187 | 0.9 | 2.6 | 0.24 | 0.09 | 0.09 | 94 | 1010.8 |
| 20260509064342 | 48 | 164 | 2.6 | 4.3 | 0.31 | 0.05 | 0.05 | 91 | 1011.0 |
| 20260509063341 | 0 | 0.0 | 0.0 | 0.00 | 0.00 | 0.00 | 1011.1 | ||
| 20260509062341 | 48 | 195 | 0.0 | 0.0 | 0.00 | 0.00 | 0.00 | 84 | 1011.2 |
| 20260509061337 | 48 | 200 | 0.0 | 0.0 | 0.00 | 0.00 | 0.00 | 80 | 1011.2 |
| 20260509060336 | 48 | 200 | 0.0 | 0.0 | 0.00 | 0.00 | 0.00 | 78 | 1011.2 |
| 20260509055332 | 48 | 161 | 0.0 | 0.0 | 0.00 | 0.00 | 0.00 | 76 | 1010.8 |
| 20260509054332 | 47 | 139 | 0.0 | 0.0 | 0.00 | 0.00 | 0.00 | 75 | 1011.3 |
| 20260509053327 | 47 | 145 | 0.9 | 1.7 | 0.00 | 0.00 | 0.00 | 74 | 1011.2 |
| 20260509052323 | 46 | 136 | 2.6 | 4.3 | 0.00 | 0.00 | 0.00 | 74 | 1011.3 |
| 20260509051319 | 46 | 173 | 0.0 | 0.9 | 0.00 | 0.00 | 0.00 | 74 | 1011.7 |
| 20260509050317 | 46 | 153 | 0.9 | 1.7 | 0.00 | 0.00 | 0.00 | 74 | 1011.8 |
| 20260509045316 | 46 | 191 | 0.9 | 1.7 | 0.00 | 0.00 | 0.00 | 73 | 1011.7 |
| 20260509044311 | 46 | 161 | 0.9 | 1.7 | 0.00 | 0.00 | 0.00 | 73 | 1011.9 |
| 20260509043309 | 46 | 153 | 0.0 | 0.0 | 0.00 | 0.00 | 0.00 | 73 | 1011.9 |
| 20260509042308 | 46 | 193 | 0.0 | 0.0 | 0.00 | 0.00 | 0.00 | 73 | 1011.8 |
| 20260509041307 | 47 | 196 | 0.0 | 0.9 | 0.00 | 0.00 | 0.00 | 72 | 1012.2 |
| 20260509040302 | 47 | 144 | 0.0 | 0.0 | 0.00 | 0.00 | 0.00 | 70 | 1012.2 |
| 20260509035305 | 47 | 191 | 0.0 | 0.0 | 0.00 | 0.00 | 0.00 | 70 | 1012.4 |
| 20260509034302 | 47 | 165 | 0.9 | 1.7 | 0.00 | 0.00 | 0.00 | 68 | 1012.2 |
| 20260509033302 | 47 | 172 | 0.9 | 1.7 | 0.00 | 0.00 | 0.00 | 67 | 1012.6 |
| 20260509032306 | 48 | 184 | 1.7 | 2.6 | 0.00 | 0.00 | 0.00 | 65 | 1012.3 |
| 20260509031257 | 48 | 152 | 0.0 | 0.0 | 0.00 | 0.00 | 0.00 | 64 | 1012.4 |
| 20260509030252 | 48 | 200 | 0.9 | 1.7 | 0.00 | 0.00 | 0.00 | 65 | 1012.4 |
| 20260509025250 | 48 | 145 | 1.7 | 2.6 | 0.00 | 0.00 | 0.00 | 65 | 1012.6 |
| 20260509024248 | 48 | 145 | 3.5 | 5.2 | 0.00 | 0.00 | 0.00 | 64 | 1012.6 |
| 20260509023248 | 49 | 160 | 0.0 | 0.0 | 0.00 | 0.00 | 0.00 | 64 | 1012.8 |
| 20260509022248 | 49 | 146 | 0.0 | 0.0 | 0.00 | 0.00 | 0.00 | 64 | 1012.7 |
| 20260509021248 | 49 | 163 | 0.0 | 0.0 | 0.00 | 0.00 | 0.00 | 65 | 1012.6 |
| 20260509020243 | 49 | 139 | 0.0 | 0.9 | 0.00 | 0.00 | 0.00 | 65 | 1012.6 |
| 20260509015239 | 49 | 179 | 0.0 | 0.0 | 0.00 | 0.00 | 0.00 | 64 | 1012.6 |